Weather History for KMHK - January, 2014

Change the Weather History Date:

Saturday, January 4, 2014

  Actual Average Record
Temperature  
Mean Temperature 28 °F 28 °F  
Max Temperature 39 °F 40 °F 61 °F (2003)
Min Temperature 17 °F 16 °F 0 °F (1999)
Degree Days  
Heating Degree Days 37 37  
Month to date heating degree days 179 148  
Since 1 July heating degree days 2454 2289  
Cooling Degree Days 0 0  
Month to date cooling degree days 0 0  
Year to date cooling degree days 0 0  
Moisture  
Dew Point 19 °F    
Average Humidity 74    
Maximum Humidity 88    
Minimum Humidity 59    
Precipitation  
Precipitation 0.07 in 0.01 in 0.13 in (2005)
Month to date precipitation 0.18 0.04  
Year to date precipitation 0.18 0.04  
Sea Level Pressure  
Sea Level Pressure 29.95 in    
Wind  
Wind Speed 8 mph (NNE)    
Max Wind Speed 22 mph    
Max Gust Speed 32 mph    
Visibility 6 miles    
Events Snow    
T = Trace of Precipitation, MM = Missing Value Source: NWS Daily Summary

Daily Weather History Graph

Daily Weather History Graph

Search for Another Location

Airport or City:

Trip Planner

Search our weather history database for the weather conditions in past years. The results will help you decide how hot, cold, wet, or windy it might be!

Date:

Astronomy

Jan. 04, 2014 Rise Set
Actual Time 7:46 AM CST 5:17 PM CST
Civil Twilight 7:16 AM CST 5:47 PM CST
Nautical Twilight 6:43 AM CST 6:20 PM CST
Astronomical Twilight 6:10 AM CST 6:53 PM CST
Moon 9:54 AM CST 9:36 PM CST
Length of Visible Light 10h 30m
Length of Day
9h 31m
Waxing Crescent, 15% of the Moon is Illuminated
Jan 4
Waxing Crescent
Jan 7
First Quarter
Jan 15
Full
Jan 23
Last Quarter
Jan 30
New

Hourly Weather History & Observations

Time (CST) Temp. Windchill Dew Point Humidity Pressure Visibility Wind Dir Wind Speed Gust Speed Precip Events Conditions
12:52 AM 37.0 °F 28.5 °F 24.1 °F 59% 29.68 in 10.0 mi SSW 13.8 mph - N/A   Clear
1:52 AM 35.1 °F - 23.0 °F 61% 29.70 in 10.0 mi Calm Calm - N/A   Clear
2:52 AM 32.0 °F - 21.9 °F 66% 29.74 in 10.0 mi Calm Calm - N/A   Clear
3:52 AM 26.1 °F - 21.9 °F 84% 29.75 in 10.0 mi Calm Calm - N/A   Clear
4:52 AM 25.0 °F - 21.9 °F 88% 29.75 in 10.0 mi Calm Calm - N/A   Clear
5:52 AM 25.0 °F - 21.9 °F 88% 29.77 in 10.0 mi Calm Calm - N/A   Clear
6:52 AM 23.0 °F - 19.9 °F 88% 29.79 in 10.0 mi Calm Calm - N/A   Clear
7:52 AM 25.0 °F - 21.9 °F 88% 29.83 in 10.0 mi Calm Calm - N/A   Overcast
8:52 AM 30.0 °F - 24.1 °F 79% 29.85 in 10.0 mi Calm Calm - N/A   Mostly Cloudy
9:52 AM 37.9 °F 30.5 °F 28.9 °F 70% 29.86 in 10.0 mi NNE 11.5 mph - N/A   Overcast
10:26 AM 37.9 °F 28.9 °F 30.0 °F 73% 29.87 in 10.0 mi NNE 16.1 mph 24.2 mph N/A   Mostly Cloudy
10:52 AM 36.0 °F 26.0 °F 30.0 °F 79% 29.92 in 8.0 mi NNE 17.3 mph 26.5 mph N/A   Overcast
11:32 AM 30.0 °F 17.2 °F 19.9 °F 66% 29.93 in 10.0 mi NNE 20.7 mph 32.2 mph N/A   Overcast
11:52 AM 30.0 °F 19.1 °F 21.0 °F 69% 29.96 in 10.0 mi NNE 15.0 mph 26.5 mph N/A   Overcast
12:07 PM 30.0 °F 18.7 °F 21.0 °F 69% 29.92 in 9.0 mi North 16.1 mph - N/A   Overcast
12:52 PM 26.1 °F 12.3 °F 16.0 °F 66% 29.95 in 9.0 mi NNE 19.6 mph 27.6 mph N/A   Overcast
1:52 PM 24.1 °F 12.0 °F 15.1 °F 69% 29.98 in 10.0 mi NNE 13.8 mph 26.5 mph N/A   Overcast
2:52 PM 24.1 °F 11.0 °F 14.0 °F 65% 30.00 in 10.0 mi NNE 16.1 mph 24.2 mph N/A   Overcast
3:52 PM 23.0 °F 11.1 °F 14.0 °F 68% 30.03 in 10.0 mi NNE 12.7 mph - N/A   Overcast
4:38 PM 19.9 °F 6.7 °F 14.0 °F 78% 30.01 in 5.0 mi NNE 13.8 mph 20.7 mph N/A   Haze
4:52 PM 19.9 °F 7.9 °F 14.0 °F 78% 30.08 in 3.0 mi NNE 11.5 mph 21.9 mph 0.00 in Snow Light Snow
4:59 PM 19.9 °F 7.9 °F 14.0 °F 78% 30.03 in 2.0 mi NNE 11.5 mph - 0.00 in Snow Light Snow
5:06 PM 19.9 °F 7.3 °F 14.0 °F 78% 30.04 in 1.2 mi NNE 12.7 mph 19.6 mph 0.00 in Snow Light Snow
5:13 PM 19.0 °F 7.5 °F 14.0 °F 81% 30.04 in 1.0 mi NNE 10.4 mph 19.6 mph 0.00 in Snow Light Snow
5:41 PM 19.0 °F 7.5 °F 15.1 °F 85% 30.05 in 1.0 mi NNE 10.4 mph - 0.00 in Snow Light Snow
5:52 PM 19.0 °F 8.2 °F 15.1 °F 85% 30.10 in 1.0 mi NNE 9.2 mph - 0.00 in Snow Light Snow
6:23 PM 18.0 °F 3.1 °F 14.0 °F 84% 30.06 in 1.2 mi NNE 16.1 mph 23.0 mph 0.00 in Snow Light Snow
6:52 PM 18.0 °F 6.9 °F 14.0 °F 84% 30.13 in 1.2 mi NNE 9.2 mph - 0.00 in Snow Light Snow
7:07 PM 18.0 °F 6.9 °F 14.0 °F 84% 30.09 in 1.0 mi NNE 9.2 mph - 0.01 in Snow Light Snow
7:25 PM 18.0 °F 4.8 °F 14.0 °F 84% 30.09 in 1.0 mi NNE 12.7 mph 17.3 mph 0.01 in Snow Light Snow
7:45 PM 18.0 °F 7.7 °F 15.1 °F 88% 30.10 in 0.8 mi NNE 8.1 mph - 0.01 in Snow Light Snow
7:52 PM 18.0 °F 7.7 °F 14.0 °F 84% 30.16 in 0.8 mi NNE 8.1 mph - 0.01 in Snow Light Snow
8:13 PM 18.0 °F 7.7 °F 15.1 °F 88% 30.12 in 0.8 mi NNE 8.1 mph - 0.01 in Snow Light Snow